Regional Weather Roundup
Issued by NWS

Current Version | Previous Version | Text Only | Print | Product List | Glossary On
Versions: 1 2 3 4 5 6 7 8 9 10 11 12 13 14 15 16 17 18 19 20 21 22 23 24 25 26 27 28 29 30 31 32 33 34 35 36 37 38 39 40 41 42 43 44 45 46 47 48 49 50
000
ASUS45 KCYS 280210
RWRWY

WYOMING REGIONAL WEATHER ROUNDUP
NATIONAL WEATHER SERVICE CHEYENNE WY
800 PM MDT FRI MAY 27 2016

NOTE:  "FAIR" INDICATES FEW OR NO CLOUDS BELOW 12,000 FEET
WITH NO SIGNIFICANT WEATHER AND/OR OBSTRUCTIONS TO VISIBILITY.

WYZ001-280300-
YELLOWSTONE NATIONAL PARK

CITY           SKY/WX    TMP DP  RH WIND       PRES   REMARKS
LK YELLOWSTONE   N/A     44  33  65 VRB3      30.02R
W YELLOWSTONE  NOT AVBL

$$
WYZ002>013-054>058-071-098>099-280300-
NORTHERN WYOMING

CITY           SKY/WX    TMP DP  RH WIND       PRES   REMARKS
JACKSON        MOCLDY    54  36  50 CALM      29.94R
CODY           MOCLDY    52  46  82 N12       29.88R
GREYBULL       FAIR      63  40  42 NW20      29.80R
WORLAND        CLOUDY    66  39  37 N5        29.79R
SHERIDAN       FAIR      60  43  53 E5        29.83S
BUFFALO        FAIR      56  44  64 W7        29.88S
GILLETTE       FAIR      57  43  59 CALM      29.86R
HULETT         FAIR      59  43  55 E5        29.87R
NEWCASTLE      FAIR      59  43  55 SE9       29.87R

$$
WYZ014>020-022>026-101>103-280300-
CENTRAL WYOMING

CITY           SKY/WX    TMP DP  RH WIND       PRES   REMARKS
BIG PINEY      FAIR      50  38  63 N14       29.98R
PINEDALE       CLOUDY    50  34  53 NW16G23   30.00R
DUBOIS         FAIR      50  30  46 NW6       29.94S
LANDER         CLOUDY    59  37  44 VRB6      29.85R
RIVERTON       FAIR      62  39  42 S14       29.86R
CASPER         FAIR      58  36  43 NE8       29.88R
DOUGLAS          N/A    N/A N/A N/A MISG      29.89R

$$
WYZ021-027>030-104>119-280300-
SOUTHERN WYOMING

CITY           SKY/WX    TMP DP  RH WIND       PRES   REMARKS
EVANSTON       CLOUDY    51  33  50 W9        30.01R
KEMMERER         N/A     50  34  53 W10       30.01R
FORT BRIDGER   PTCLDY    54  34  47 NW8       30.04R
ROCK SPRINGS   FAIR      55  33  43 W21       29.96R
DIXON          CLOUDY    53  39  59 N10G20    30.03R
RAWLINS        CLOUDY    49  36  61 SW9       29.99R
SARATOGA       FAIR      46  37  71 SW14G20   30.00R
LARAMIE        LGT RAIN  46  38  73 N10G21    29.98R
CHEYENNE       FAIR      50  41  71 SW3       29.95R
TORRINGTON     FAIR      55  47  74 SW5       29.87R
PINE BLUFFS    FAIR      52  43  71 CALM      29.91S

$$



USA.gov is the U.S. government's official web portal to all federal, state and local government web resources and services.